When you browse on this site, cookies collect data to enhance your experience and personalize the content and advertising you see.
Visit our Privacy Policy to learn more. By continuing to use the site, you agree to this use of cookies and data.
  • In Österreich
  • Länderverzeichnis
  • Für 7 Tage
  • Wassertemperatur
  • Wetterkarte
  • News
  • Widgets
  • user-avatar
    Anmelden

    Stündliche Wetter Progreso de Obregón

    Heute, 18 August, Sonntag

    Zeit Temperatur Niederschläge Wind Luftdruck Luftfeuchtigkeit
    00:00 +15°C° 0 mm 0 m/S 602 mmHg 95%
    01:00 +14°C° 0 mm 0 m/S 602 mmHg 95%
    02:00 +14°C° 0 mm 0 m/S 601 mmHg 95%
    03:00 +14°C° 0 mm 0 m/S 601 mmHg 95%
    04:00 +13°C° 0 mm 0 m/S 601 mmHg 95%
    05:00 +13°C° 0 mm 0 m/S 601 mmHg 94%
    06:00 +15°C° 0 mm 0 m/S 602 mmHg 87%
    07:00 +17°C° 0 mm 0 m/S 603 mmHg 79%
    08:00 +19°C° 0 mm 0 m/S 604 mmHg 72%
    09:00 +22°C° 0 mm 1 m/S 605 mmHg 63%
    10:00 +24°C° 0 mm 2 m/S 605 mmHg 54%
    11:00 +26°C° 0 mm 2 m/S 606 mmHg 45%
    12:00 +26°C° 0 mm 3 m/S 605 mmHg 44%
    13:00 +27°C° 0 mm 4 m/S 605 mmHg 43%
    14:00 +27°C° 0 mm 4 m/S 604 mmHg 42%
    15:00 +26°C° 0.1 mm 5 m/S 604 mmHg 50%
    16:00 +25°C° 0.1 mm 5 m/S 603 mmHg 58%
    17:00 +23°C° 0.1 mm 5 m/S 603 mmHg 67%
    18:00 +21°C° 0.4 mm 4 m/S 603 mmHg 75%
    19:00 +19°C° 0.4 mm 3 m/S 603 mmHg 84%
    20:00 +18°C° 0.4 mm 2 m/S 603 mmHg 93%
    21:00 +18°C° 0 mm 1 m/S 603 mmHg 94%
    22:00 +18°C° 0 mm 1 m/S 603 mmHg 96%
    23:00 +16°C° 0 mm 1 m/S 602 mmHg 97%

    Morgen, 19 August, Montag

    Zeit Temperatur Niederschläge Wind Luftdruck Luftfeuchtigkeit
    00:00 +16°C° 0 mm 1 m/S 602 mmHg 97%
    01:00 +15°C° 0 mm 1 m/S 602 mmHg 97%
    02:00 +14°C° 0 mm 0 m/S 602 mmHg 98%
    03:00 +15°C° 0 mm 1 m/S 602 mmHg 97%
    04:00 +16°C° 0 mm 1 m/S 602 mmHg 96%
    05:00 +16°C° 0 mm 1 m/S 602 mmHg 95%
    06:00 +18°C° 0 mm 1 m/S 603 mmHg 89%
    07:00 +19°C° 0 mm 1 m/S 603 mmHg 84%
    08:00 +19°C° 0 mm 2 m/S 604 mmHg 78%
    09:00 +20°C° 0 mm 2 m/S 604 mmHg 71%
    10:00 +22°C° 0 mm 3 m/S 605 mmHg 63%
    11:00 +23°C° 0 mm 4 m/S 605 mmHg 55%
    12:00 +23°C° 0.1 mm 5 m/S 605 mmHg 56%
    13:00 +24°C° 0.1 mm 6 m/S 604 mmHg 56%
    14:00 +24°C° 0.1 mm 7 m/S 604 mmHg 57%
    15:00 +23°C° 0.1 mm 7 m/S 603 mmHg 61%
    16:00 +21°C° 0.1 mm 7 m/S 603 mmHg 66%
    17:00 +20°C° 0.1 mm 7 m/S 603 mmHg 70%
    18:00 +19°C° 0 mm 5 m/S 603 mmHg 77%
    19:00 +18°C° 0 mm 4 m/S 603 mmHg 83%
    20:00 +17°C° 0 mm 2 m/S 603 mmHg 90%
    21:00 +16°C° 0 mm 2 m/S 603 mmHg 92%
    22:00 +15°C° 0 mm 2 m/S 603 mmHg 94%
    23:00 +15°C° 0 mm 1 m/S 603 mmHg 96%

    übermorgen, 20 August, Dienstag

    Zeit Temperatur Niederschläge Wind Luftdruck Luftfeuchtigkeit
    00:00 +14°C° 0 mm 1 m/S 603 mmHg 95%
    01:00 +14°C° 0 mm 1 m/S 602 mmHg 95%
    02:00 +14°C° 0 mm 1 m/S 602 mmHg 94%
    03:00 +13°C° 0 mm 1 m/S 602 mmHg 93%
    04:00 +13°C° 0 mm 1 m/S 602 mmHg 93%
    05:00 +13°C° 0 mm 1 m/S 602 mmHg 92%
    06:00 +14°C° 0 mm 1 m/S 603 mmHg 85%
    07:00 +15°C° 0 mm 1 m/S 604 mmHg 78%
    08:00 +18°C° 0 mm 1 m/S 604 mmHg 72%
    09:00 +18°C° 0 mm 2 m/S 605 mmHg 65%
    10:00 +20°C° 0 mm 3 m/S 605 mmHg 59%
    11:00 +22°C° 0 mm 5 m/S 606 mmHg 53%
    12:00 +23°C° 0 mm 5 m/S 605 mmHg 54%
    13:00 +23°C° 0 mm 6 m/S 605 mmHg 56%
    14:00 +23°C° 0 mm 7 m/S 604 mmHg 58%
    15:00 +22°C° 0.1 mm 7 m/S 604 mmHg 62%
    16:00 +21°C° 0.1 mm 6 m/S 604 mmHg 67%
    17:00 +20°C° 0.1 mm 6 m/S 603 mmHg 71%
    18:00 +17°C° 0 mm 5 m/S 603 mmHg 79%
    19:00 +17°C° 0 mm 3 m/S 603 mmHg 86%
    20:00 +15°C° 0 mm 2 m/S 603 mmHg 93%
    21:00 +15°C° 0 mm 1 m/S 604 mmHg 93%
    22:00 +15°C° 0 mm 1 m/S 604 mmHg 94%
    23:00 +15°C° 0 mm 1 m/S 604 mmHg 95%

    21 August, Mittwoch

    Zeit Temperatur Niederschläge Wind Luftdruck Luftfeuchtigkeit
    00:00 +15°C° 0 mm 1 m/S 604 mmHg 95%
    01:00 +15°C° 0 mm 1 m/S 603 mmHg 96%
    02:00 +14°C° 0 mm 1 m/S 603 mmHg 96%
    03:00 +14°C° 0 mm 1 m/S 603 mmHg 96%
    04:00 +14°C° 0 mm 1 m/S 603 mmHg 95%
    05:00 +14°C° 0 mm 1 m/S 603 mmHg 95%
    06:00 +15°C° 0 mm 1 m/S 603 mmHg 89%
    07:00 +16°C° 0 mm 1 m/S 604 mmHg 84%
    08:00 +18°C° 0 mm 1 m/S 604 mmHg 79%
    09:00 +18°C° 0 mm 2 m/S 605 mmHg 72%
    10:00 +20°C° 0 mm 2 m/S 605 mmHg 64%
    11:00 +21°C° 0 mm 3 m/S 605 mmHg 57%
    12:00 +22°C° 0 mm 4 m/S 605 mmHg 57%
    13:00 +22°C° 0 mm 5 m/S 604 mmHg 57%
    14:00 +23°C° 0 mm 5 m/S 604 mmHg 57%
    15:00 +22°C° 0.3 mm 5 m/S 604 mmHg 63%
    16:00 +21°C° 0.3 mm 6 m/S 603 mmHg 68%
    17:00 +20°C° 0.3 mm 6 m/S 603 mmHg 73%
    18:00 +18°C° 0 mm 4 m/S 603 mmHg 79%
    19:00 +17°C° 0 mm 3 m/S 603 mmHg 85%
    20:00 +15°C° 0 mm 1 m/S 603 mmHg 91%
    21:00 +15°C° 0 mm 1 m/S 603 mmHg 92%
    22:00 +15°C° 0 mm 1 m/S 603 mmHg 92%
    23:00 +14°C° 0 mm 0 m/S 603 mmHg 93%

    22 August, Donnerstag

    Zeit Temperatur Niederschläge Wind Luftdruck Luftfeuchtigkeit
    00:00 +14°C° 0.1 mm 0 m/S 603 mmHg 93%
    01:00 +14°C° 0.1 mm 0 m/S 603 mmHg 92%
    02:00 +14°C° 0.1 mm 0 m/S 602 mmHg 92%
    03:00 +14°C° 0 mm 0 m/S 602 mmHg 92%
    04:00 +13°C° 0 mm 0 m/S 602 mmHg 93%
    05:00 +13°C° 0 mm 0 m/S 602 mmHg 94%
    06:00 +14°C° 0 mm 0 m/S 603 mmHg 88%
    07:00 +16°C° 0 mm 0 m/S 604 mmHg 81%
    08:00 +19°C° 0 mm 1 m/S 605 mmHg 75%
    09:00 +21°C° 0.1 mm 1 m/S 605 mmHg 69%
    10:00 +22°C° 0.1 mm 1 m/S 605 mmHg 63%
    11:00 +24°C° 0.1 mm 1 m/S 606 mmHg 57%
    12:00 +24°C° 0.9 mm 1 m/S 605 mmHg 56%
    13:00 +25°C° 0.9 mm 1 m/S 605 mmHg 56%
    14:00 +25°C° 0.9 mm 2 m/S 605 mmHg 55%
    15:00 +24°C° 2.4 mm 2 m/S 604 mmHg 65%
    16:00 +21°C° 2.4 mm 2 m/S 603 mmHg 74%
    17:00 +20°C° 2.4 mm 2 m/S 603 mmHg 84%
    18:00 +20°C° 5 mm 1 m/S 603 mmHg 87%
    19:00 +19°C° 5 mm 1 m/S 603 mmHg 91%
    20:00 +16°C° 5 mm 1 m/S 603 mmHg 94%
    21:00 +16°C° 2.2 mm 1 m/S 603 mmHg 94%
    22:00 +16°C° 2.2 mm 1 m/S 604 mmHg 94%
    23:00 +16°C° 2.2 mm 1 m/S 604 mmHg 94%

    23 August, Freitag

    Zeit Temperatur Niederschläge Wind Luftdruck Luftfeuchtigkeit
    00:00 +16°C° 0.6 mm 1 m/S 604 mmHg 93%
    01:00 +16°C° 0.6 mm 1 m/S 603 mmHg 92%
    02:00 +16°C° 0.6 mm 1 m/S 603 mmHg 92%
    03:00 +16°C° 0 mm 1 m/S 603 mmHg 91%
    04:00 +16°C° 0 mm 1 m/S 603 mmHg 91%
    05:00 +16°C° 0 mm 1 m/S 604 mmHg 90%
    06:00 +18°C° 0 mm 1 m/S 604 mmHg 86%
    07:00 +19°C° 0 mm 1 m/S 604 mmHg 82%
    08:00 +20°C° 0 mm 1 m/S 605 mmHg 78%
    09:00 +21°C° 0.2 mm 1 m/S 605 mmHg 71%
    10:00 +23°C° 0.2 mm 1 m/S 606 mmHg 64%
    11:00 +25°C° 0.2 mm 1 m/S 606 mmHg 57%
    12:00 +25°C° 1.1 mm 1 m/S 605 mmHg 57%
    13:00 +25°C° 1.1 mm 2 m/S 605 mmHg 56%
    14:00 +26°C° 1.1 mm 2 m/S 605 mmHg 55%
    15:00 +24°C° 2.3 mm 2 m/S 604 mmHg 65%
    16:00 +21°C° 2.3 mm 2 m/S 603 mmHg 75%
    17:00 +19°C° 2.3 mm 2 m/S 602 mmHg 85%
    18:00 +18°C° 4.2 mm 2 m/S 603 mmHg 88%
    19:00 +18°C° 4.2 mm 2 m/S 603 mmHg 90%
    20:00 +17°C° 4.2 mm 2 m/S 603 mmHg 93%
    21:00 +18°C° 0.8 mm 1 m/S 604 mmHg 92%
    22:00 +18°C° 0.8 mm 1 m/S 604 mmHg 92%
    23:00 +16°C° 0.8 mm 0 m/S 604 mmHg 91%
    Mehr zeigen